Orbital Elements
Epoch 2013 Jan. 28.0 TT = JDT 2456320.5
T 2013 Feb. 4.54557 TT MPC
q 4.8379583 (2000.0) P Q
z +0.0007493 Peri. 279.89228 +0.18023534 +0.48587463
+/-0.0000010 Node 300.63817 +0.30426399 -0.85437800
e 0.9963749 Incl. 96.27779 -0.93538155 -0.18429344
From 211 observations 2012 Feb. 5-2014 July 27, mean residual 0".4.
|